Dewpoint
30 21 25 24 20 23 26 25 18 17 18 17 20 16 14 16 17 23 23 25 26 21 19 19 20 19 19 18 18 19 23 22 23 22 24 27 28 28 29 30 29 30 28 35 38 43 44 44 42 42 40 37 36 37 37 38 37 38 40 40 39 39 40 44 48 51 52 53 53 53 55 57 57 58 58 60 60 60 60 60 61 62 64 65 66 66
29 22 21 23 22 21 24 27 26 26 24 21 20 19 19 21 18 22 21 24 28 22 20 21 21 20 21 22 22 22 22 20 20 20 20 21 25 29 30 31 31 31 35 39 38 40 40 39 39 38 38 37 34 37 37 38 38 37 38 37 37 37 37 38 40 43 48 50 52 54 55 55 57 57 58 59 59 60 60 59 60 60 61 62 64 65
28 26 25 23 25 26 26 25 25 25 24 23 22 20 19 19 20 21 22 23 25 21 19 20 20 20 21 22 23 23 23 23 22 22 20 20 22 26 28 27 29 27 29 35 36 36 36 38 38 37 37 37 37 37 38 38 38 37 37 38 38 38 38 38 40 39 40 44 43 47 50 53 55 55 56 57 58 58 59 61 61 61 61 61 61 63
24 27 29 28 26 26 26 25 25 24 24 22 21 20 18 19 17 16 19 22 24 22 20 21 18 21 23 24 24 24 24 25 27 27 25 25 21 22 25 26 27 25 27 31 32 32 33 34 35 35 36 37 37 37 36 38 38 38 38 38 38 38 38 39 40 41 39 40 42 42 44 45 50 50 50 44 47 51 56 58 59 61 61 60 61 60
22 22 26 28 27 26 25 25 24 24 23 23 22 20 19 18 15 17 16 21 20 22 20 19 19 19 18 20 22 22 24 26 26 26 26 25 28 27 28 29 29 24 27 31 31 32 32 33 34 34 35 35 35 36 36 37 37 39 37 37 37 38 38 38 39 39 40 39 38 38 38 39 40 40 42 41 41 44 50 53 55 59 59 60 60 60
26 27 27 22 24 26 25 23 19 20 20 19 20 21 20 19 16 17 18 18 15 16 20 20 13 11 14 16 19 21 21 20 20 19 20 20 21 25 26 26 29 32 30 30 31 31 33 33 33 33 33 34 34 35 36 37 36 35 35 35 35 36 36 37 38 39 40 39 38 37 37 37 39 39 38 38 39 40 41 44 52 55 56 58 59 60
26 26 27 26 24 18 16 14 14 16 13 11 11 19 20 19 16 16 17 16 9 10 17 22 14 9 14 11 16 16 18 20 23 24 21 20 19 20 23 27 29 30 31 32 32 32 32 32 32 33 33 33 33 35 36 36 35 35 35 34 34 35 35 37 36 37 40 39 39 38 38 38 39 39 41 42 42 43 43 45 45 47 51 54 57 58
22 25 25 25 24 22 19 15 15 13 11 9 18 20 20 19 18 16 18 17 15 17 19 17 17 10 9 14 15 17 17 18 18 19 22 24 22 20 19 22 28 30 30 31 31 32 32 32 31 32 33 33 34 35 35 36 36 35 35 34 34 34 35 34 35 35 37 38 39 39 39 40 38 38 39 40 40 41 42 41 41 42 43 46 51 55
21 20 24 23 22 22 20 19 17 13 11 13 20 21 18 20 20 18 18 17 15 12 10 14 13 9 6 13 16 16 14 16 17 17 16 20 24 22 20 22 27 30 31 31 31 31 31 31 32 32 33 34 35 35 35 36 36 36 35 34 33 33 34 34 34 35 35 38 38 39 39 39 40 39 40 40 40 39 40 39 40 40 41 41 43 47
18 19 21 22 20 19 18 16 17 14 10 15 21 22 21 21 20 18 17 17 13 9 9 11 13 5 7 9 11 13 12 14 15 14 13 17 21 24 26 27 28 30 31 31 31 31 31 31 32 32 33 33 34 35 36 35 35 36 35 34 33 33 33 34 33 34 34 36 37 37 38 38 39 39 39 39 39 38 39 38 38 39 40 40 41 41
13 26 29 21 19 18 16 17 18 16 14 22 21 17 16 16 14 9 8 11 9 12 13 14 12 9 4 9 12 9 12 9 5 8 21 22 24 26 27 28 30 30 30 31 31 31 31 32 31 31 31 32 33 34 34 34 35 35 35 33 33 33 33 33 33 33 34 34 35 36 37 37 38 39 40 39 39 39 38 38 38 39 40 40 41 42
17 20 19 22 26 21 16 15 18 21 21 20 14 12 12 8 9 2 0 7 11 8 11 15 10 10 7 4 13 9 14 14 5 2 11 23 25 26 27 28 29 29 29 29 29 29 29 28 28 29 29 30 31 32 33 34 34 35 34 34 32 33 33 33 33 33 33 33 34 35 36 37 38 39 39 39 39 39 39 39 39 39 40 40 41 41
16 18 20 20 29 23 15 12 14 19 21 19 15 15 12 -4 -0 4 7 5 8 8 10 5 11 8 11 10 10 12 11 12 15 9 15 24 25 26 27 28 28 27 26 27 26 26 26 26 26 26 27 29 30 31 32 33 34 34 34 33 32 33 33 33 33 32 32 32 33 34 36 36 38 38 39 40 40 40 40 40 39 39 39 40 40 40
11 10 17 19 20 23 18 12 10 11 19 17 17 14 8 0 -0 -0 -1 -4 0 5 6 4 10 6 7 11 13 10 10 12 13 18 23 24 25 26 26 26 26 25 25 25 25 25 25 25 25 26 26 28 29 30 32 33 33 34 34 33 33 33 33 33 33 32 32 32 33 34 35 36 37 37 38 39 39 40 40 41 40 40 40 40 40 40
-1 0 10 16 14 21 20 15 13 12 18 17 17 16 11 4 -1 -2 -3 0 1 2 4 6 4 -1 8 8 14 12 10 8 13 20 24 25 25 26 25 24 23 23 23 23 23 24 24 25 25 26 26 26 28 29 31 32 33 33 33 33 32 32 33 33 33 33 32 32 33 33 34 34 35 36 37 37 39 39 40 40 41 41 41 40 40 40
4 1 6 17 16 20 19 19 17 14 16 15 13 13 7 7 8 -6 -1 -3 -5 -6 -5 3 5 4 12 14 21 18 15 12 21 22 24 23 23 23 22 21 21 21 22 23 23 23 24 24 24 25 25 26 27 28 29 31 33 33 34 33 33 33 33 33 33 32 32 32 33 33 33 33 34 35 35 36 37 38 39 40 41 41 41 41 41 41
1 2 3 12 18 19 18 19 18 15 7 13 18 12 13 14 8 -7 -3 -4 -6 -6 -7 2 9 12 12 9 16 18 18 18 20 21 22 22 21 20 20 19 19 20 20 21 22 22 22 24 24 24 24 25 27 27 27 29 31 32 33 32 32 32 32 33 33 32 32 32 32 32 32 32 33 33 33 34 36 36 36 38 39 40 41 41 41 42
2 -0 6 10 9 16 19 18 18 17 14 15 11 16 16 14 10 4 -6 -8 -7 -4 -9 3 6 8 5 1 15 17 17 18 19 20 20 20 19 18 18 18 17 18 18 18 18 18 19 19 21 23 24 23 24 25 26 27 31 32 33 32 32 32 32 32 32 33 32 32 32 32 32 32 32 33 33 34 34 34 34 34 36 37 38 39 41 41
10 5 5 9 9 13 20 19 17 18 20 14 13 15 14 6 5 1 -3 -2 -9 -9 -14 -5 5 7 4 -2 14 15 15 17 17 18 18 17 17 17 16 15 15 15 15 14 14 14 15 16 16 17 16 20 25 27 26 29 30 31 32 33 32 32 32 33 33 33 32 32 32 33 32 31 32 33 33 34 33 32 32 33 34 34 35 36 37 40
7 3 2 7 9 14 16 16 11 13 16 19 21 16 15 9 7 8 7 -3 -1 -6 -14 -12 -6 -1 7 1 14 14 15 17 16 16 17 16 15 14 13 14 13 13 13 13 13 14 14 14 13 14 13 14 21 25 28 29 29 30 31 32 32 32 32 32 32 32 31 32 31 31 31 31 32 33 33 32 32 31 32 32 32 32 32 33 36 38
14 4 2 5 8 13 9 14 12 13 12 13 14 6 12 10 11 8 1 5 -1 -13 -6 -14 -10 -2 3 8 13 14 15 17 16 16 16 15 14 13 13 13 13 13 13 14 14 14 14 14 15 16 14 17 23 27 28 28 29 30 32 31 31 32 32 31 31 31 31 31 31 30 29 30 31 32 32 31 31 31 31 31 31 31 31 33 34 36
10 7 9 6 5 8 12 15 16 13 14 13 14 12 16 14 6 2 3 4 -6 -6 -12 -13 -9 -4 3 11 11 13 16 17 17 16 15 13 13 13 13 13 13 13 13 14 13 14 15 14 15 15 18 21 24 25 26 28 30 30 31 31 31 32 31 30 30 30 30 30 30 29 29 29 30 31 30 29 30 30 30 30 30 30 31 31 32 34
13 5 -2 8 8 8 12 14 14 13 14 12 14 13 16 15 12 5 1 1 -0 3 -3 -5 -13 -4 5 12 13 12 16 17 17 16 14 13 13 12 13 13 14 13 13 13 13 13 14 14 14 12 12 17 23 24 26 27 29 30 30 30 31 31 30 31 30 29 29 28 28 28 28 29 29 28 28 28 29 29 29 29 29 30 30 30 31 31
21 5 -8 -0 7 11 11 12 10 8 10 12 10 11 13 15 15 11 7 4 6 -1 1 -3 -5 -0 10 14 12 11 16 17 15 14 17 15 12 12 13 13 12 11 12 12 13 14 15 16 16 14 12 18 23 24 26 28 29 29 30 30 30 30 30 30 30 29 27 27 26 27 27 27 27 26 26 26 27 28 28 28 28 29 29 29 30 30
6 7 6 3 -3 -5 1 7 7 9 7 3 6 11 11 13 14 9 1 -2 -1 1 5 3 -0 -4 6 15 12 14 15 14 13 13 14 14 12 12 11 11 11 10 10 9 10 11 14 15 12 10 12 16 20 23 26 27 28 29 29 29 30 29 29 29 28 27 26 26 25 25 25 25 24 24 24 25 26 26 26 27 27 28 28 28 29 29
10 10 7 3 -1 -3 -5 -5 -3 0 5 7 4 6 9 12 13 14 10 6 3 -0 4 -1 -9 5 7 10 9 10 12 12 12 12 12 12 12 10 11 11 10 10 9 8 8 10 11 13 12 11 12 14 15 23 26 26 27 28 29 29 28 28 27 27 26 26 25 25 24 24 24 24 23 23 23 24 24 24 25 26 26 27 27 28 28 28
13 15 12 11 7 4 6 6 5 13 3 3 2 6 7 9 14 16 10 9 7 5 3 1 4 3 7 7 8 10 11 10 10 11 10 10 11 12 11 12 12 10 10 8 9 10 11 11 10 10 11 13 13 20 26 26 26 27 27 27 26 27 27 26 26 25 24 23 23 23 23 22 22 22 22 23 22 23 23 24 24 25 26 27 28 28
13 9 9 10 9 9 10 10 9 12 8 8 6 3 5 6 8 11 11 8 10 8 5 6 5 5 7 7 8 9 9 10 10 10 10 10 11 12 12 13 20 12 12 11 10 10 9 9 10 10 10 10 12 21 26 26 27 26 27 26 25 25 26 26 25 24 23 22 21 21 22 22 22 22 22 22 22 22 22 22 23 24 25 26 26 27
9 7 8 10 8 10 11 11 12 11 8 6 7 7 7 7 4 7 8 9 6 7 4 8 7 5 7 8 10 10 9 9 9 9 9 12 13 14 13 14 15 12 12 11 9 8 9 9 10 10 10 10 12 23 25 25 25 26 25 25 25 24 24 24 24 23 22 20 20 21 21 21 21 21 20 20 20 20 20 21 21 22 23 24 25 27
8 6 7 8 6 8 9 11 11 10 9 7 2 4 9 9 8 8 5 3 7 4 4 4 4 4 7 9 8 6 7 7 4 4 9 8 8 12 13 14 14 13 13 12 11 9 9 8 9 10 10 10 12 23 25 25 25 25 26 25 24 25 24 24 23 21 20 20 20 20 19 19 19 19 19 19 19 19 19 20 20 21 22 23 24 25
14 6 9 8 6 6 8 10 11 11 10 8 6 4 8 5 8 9 9 9 5 7 10 7 7 5 10 12 14 12 8 7 5 3 3 3 9 12 10 11 13 13 13 12 11 10 8 7 7 7 10 9 12 23 25 25 25 25 25 25 24 24 23 23 22 21 19 19 19 18 17 17 17 17 17 17 18 18 18 19 20 20 21 22 23 24
13 8 9 8 5 4 7 9 11 12 11 10 8 7 5 6 5 8 9 11 9 7 10 9 8 8 10 15 16 13 14 12 8 8 7 8 6 11 9 9 10 11 12 12 11 10 8 7 7 6 6 7 10 22 24 25 25 25 25 25 24 24 24 23 21 20 18 18 17 17 16 15 15 15 15 16 16 17 18 19 19 19 20 21 22 23
9 8 6 5 1 -0 7 6 6 7 6 4 6 8 7 6 7 7 9 11 10 9 9 8 8 9 9 14 13 13 15 16 13 9 11 11 11 10 9 9 10 11 11 11 11 11 8 7 6 6 7 7 9 20 24 25 25 25 25 24 23 24 23 22 20 18 17 17 16 15 15 14 13 13 13 14 15 16 17 18 18 19 19 20 22 23
8 8 5 5 -2 -2 1 3 3 -0 -8 -8 9 10 8 6 6 5 6 7 9 12 8 9 10 11 10 12 13 12 11 14 13 14 15 11 10 10 10 10 10 10 11 11 11 11 10 10 9 9 8 8 8 16 24 26 25 25 24 23 23 23 22 19 17 16 16 15 14 14 13 12 12 12 13 14 15 16 16 17 17 18 19 20 22 23
6 6 4 3 -0 -2 -2 -2 -4 -9 -10 2 5 4 9 8 7 6 5 5 7 9 8 8 7 6 9 9 9 9 8 6 7 7 11 11 11 11 11 11 11 12 11 11 11 10 10 10 9 9 9 8 10 20 25 24 24 23 22 23 22 20 17 16 15 14 14 12 12 12 11 11 10 11 12 14 15 15 15 16 17 18 19 20 22 22
6 4 1 2 1 -0 -5 -3 -10 -12 -3 4 3 3 2 7 7 7 4 0 2 4 8 8 9 5 7 8 10 11 11 9 9 12 11 11 11 11 11 11 12 12 12 12 11 11 11 11 11 10 9 11 16 23 25 24 22 21 22 20 17 15 14 13 11 10 9 9 9 9 9 9 9 10 12 13 14 14 15 15 16 17 19 20 21 21
9 6 4 -1 1 -4 -4 -5 -6 -4 -5 -4 -3 -2 4 1 0 5 2 2 6 7 7 2 6 8 9 9 10 11 11 5 0 8 11 9 10 11 11 12 13 13 13 13 13 12 12 12 11 11 12 14 20 23 24 22 21 21 18 15 13 10 9 8 7 7 7 7 7 7 7 8 9 10 12 13 13 13 14 15 16 17 19 19 20 20
10 6 5 0 -3 -2 -6 -8 -9 -8 -9 -5 0 -0 -1 -1 -3 2 -1 1 6 5 5 8 8 7 7 7 9 10 7 -8 -9 2 10 8 9 9 11 12 13 13 14 14 14 14 14 14 12 12 13 18 23 24 22 20 20 17 14 11 9 7 6 6 5 5 5 5 5 6 6 8 9 11 12 12 12 13 13 14 16 17 18 18 18 19
10 11 9 2 -2 -2 -4 -7 -9 -12 -11 -4 -2 -1 -2 -3 -4 -4 -5 -5 5 4 4 4 3 3 3 5 6 8 -5 -6 -7 8 8 7 8 9 9 11 12 13 14 16 18 19 18 16 14 17 21 22 22 19 19 19 15 12 9 8 6 5 4 4 4 4 3 4 5 6 7 8 10 10 10 11 11 12 13 14 15 16 17 17 17 17
7 7 6 2 -1 -1 -3 -6 -9 -13 -13 -4 -3 -3 -3 -1 -1 -5 -10 -12 3 3 2 2 -1 -1 -0 2 3 8 2 -2 1 8 6 6 7 8 10 11 12 13 16 21 20 19 19 18 18 17 16 16 16 17 15 12 10 8 6 5 4 3 3 2 2 2 2 3 4 5 7 8 9 9 9 10 11 11 12 13 14 14 15 16 16 17
2 3 2 -3 -0 -3 -1 -4 -8 -8 3 -9 -8 -8 -6 -3 -3 -6 -10 -2 1 -0 0 -0 -3 -4 -2 -1 1 6 3 3 4 4 5 4 7 13 17 15 15 17 18 17 15 16 12 11 11 11 11 11 11 10 9 7 6 5 4 2 1 1 0 1 1 1 2 3 4 5 6 6 7 7 8 10 10 10 11 12 12 13 14 14 16 16
-9 -13 -9 0 -0 -3 -5 -5 -5 -24 -6 -11 -10 -10 -6 -8 -11 -8 -3 -3 -2 -4 -3 -3 -5 -5 -4 -2 -2 -1 -1 1 3 2 2 3 8 12 14 17 17 16 14 13 14 11 9 8 6 5 4 4 4 6 6 5 3 2 1 -0 -1 -1 -1 -1 -0 0 1 3 4 4 4 4 5 7 8 9 9 9 10 11 12 12 13 14 15 14
-10 -11 -21 -11 -10 -6 -5 -7 -19 -13 -12 -12 -11 -7 -9 -4 -6 -12 -11 -1 -6 -7 -7 -6 -7 -7 -6 -6 -4 -3 -2 -2 -1 -1 1 4 7 8 10 12 13 11 10 9 8 9 7 5 4 1 1 1 0 1 2 3 1 -1 -1 -2 -2 -2 -2 -2 -2 -1 1 2 1 2 2 4 5 6 7 8 9 9 9 10 10 11 12 13 13 14
-9 -12 -16 -11 -7 -15 -12 -11 -14 -21 -15 -11 -13 -21 -13 -11 -9 -8 -6 -6 -8 -9 -10 -9 -10 -9 -8 -8 -7 -5 -4 -4 -3 -2 -1 3 5 4 5 7 10 10 8 7 6 6 6 3 1 -1 -2 -2 -2 -3 -2 -0 -1 -2 -3 -4 -4 -4 -4 -4 -3 -1 -0 -0 -1 0 2 4 4 6 7 7 8 7 7 8 8 10 11 12 13 13
-12 -12 -10 -41 -11 -11 -22 -32 -16 -11 -11 -11 -12 -13 -13 -12 -11 -10 -10 -11 -12 -11 -11 -10 -11 -10 -10 -9 -9 -8 -7 -6 -5 -4 -3 3 3 2 2 3 4 7 8 7 6 6 4 2 1 -0 -2 -3 -4 -5 -5 -5 -4 -3 -5 -6 -5 -6 -6 -5 -4 -3 -3 -3 -2 0 1 2 3 4 4 5 7 7 7 5 6 7 8 10 11 12
-20 -14 -11 -10 -15 -10 -9 -9 -10 -11 -12 -12 -11 -12 -13 -13 -13 -12 -13 -14 -13 -12 -12 -12 -12 -11 -11 -10 -11 -11 -10 -8 -7 -6 -5 -0 -1 0 1 0 1 2 4 4 6 5 4 2 1 -0 -2 -3 -4 -5 -5 -6 -6 -6 -7 -7 -7 -7 -7 -6 -5 -5 -4 -4 -3 -1 0 1 3 4 4 4 7 7 8 7 6 5 7 8 8 11
-17 -15 -13 -14 -12 -19 -45 -13 -13 -14 -14 -13 -14 -13 -13 -13 -14 -14 -14 -14 -14 -14 -13 -13 -11 -12 -11 -11 -11 -12 -11 -10 -10 -8 -6 -1 -2 -2 -1 -1 -1 -0 1 2 2 4 2 2 -0 -0 -1 -3 -4 -6 -7 -7 -7 -8 -8 -8 -8 -8 -8 -8 -7 -6 -6 -5 -4 -3 -0 2 3 4 4 3 5 5 5 6 4 5 6 5 6 9
-16 -16 -12 -17 -17 -15 -18 -15 -13 -13 -14 -14 -15 -16 -15 -15 -14 -14 -14 -14 -14 -14 -14 -14 -13 -13 -13 -14 -14 -14 -13 -12 -12 -11 -9 -5 -4 -4 -3 -3 -2 -2 -2 1 1 1 1 -0 -1 -2 -2 -3 -3 -5 -7 -8 -8 -9 -9 -9 -9 -9 -10 -9 -8 -8 -8 -6 -5 -4 -1 -0 3 3 2 3 4 4 5 3 3 4 4 5 7 9
-23 -18 -24 -22 -20 -16 -15 -17 -19 -14 -13 -15 -16 -15 -15 -15 -16 -16 -16 -16 -16 -17 -17 -16 -14 -14 -15 -15 -14 -15 -15 -14 -13 -12 -11 -7 -6 -6 -4 -4 -4 -3 -3 -2 -0 0 -2 -2 -2 -3 -4 -4 -4 -4 -6 -8 -9 -9 -9 -10 -9 -10 -11 -10 -10 -9 -9 -7 -6 -5 -3 -2 -1 0 2 2 3 4 5 5 5 6 7 8 9 10
-23 -26 -25 -19 -16 -20 -24 -22 -22 -22 -18 -18 -18 -16 -15 -16 -17 -18 -18 -18 -18 -18 -18 -17 -16 -15 -16 -15 -16 -16 -17 -16 -15 -14 -13 -10 -8 -7 -6 -5 -5 -5 -4 -4 -3 -2 -3 -3 -4 -5 -5 -6 -6 -5 -6 -9 -11 -11 -10 -10 -10 -11 -12 -11 -11 -10 -9 -8 -7 -6 -4 -3 -1 0 0 0 1 2 3 6 8 10 10 9 13 14
-28 -27 -25 -28 -27 -25 -22 -21 -20 -21 -21 -17 -19 -16 -15 -16 -17 -18 -19 -19 -19 -18 -18 -18 -18 -17 -17 -17 -15 -17 -17 -17 -17 -15 -15 -13 -11 -8 -7 -7 -7 -7 -6 -6 -6 -5 -4 -5 -5 -6 -7 -7 -7 -7 -7 -9 -11 -12 -11 -11 -11 -11 -12 -11 -11 -11 -10 -9 -9 -5 -3 -2 -2 -1 -1 -2 -1 0 2 3 5 9 12 13 12 13